Theta_e
310 310 310 310 312 312 312 312 312 311 311 311 311 312 312 311 311 311 311 311 311 311 311 311 311 311 311 312 311 310 310 309 309 310 309 309 309 308 309 310 310 310
311 311 311 311 312 312 312 311 311 311 311 311 312 312 311 311 311 311 310 310 310 310 310 310 310 309 309 309 309 308 308 308 309 309 310 310 309 309 309 310 310 310
312 312 312 312 312 312 312 311 311 311 311 311 312 312 311 310 310 310 310 309 309 309 309 308 308 308 307 307 307 307 307 308 308 309 310 310 309 309 310 310 310 310
313 313 313 313 313 313 313 312 311 311 311 311 312 312 311 310 310 310 309 308 308 308 308 308 307 307 307 306 306 306 307 307 307 308 309 309 309 310 310 310 310 310
314 314 314 314 314 313 313 312 310 310 311 311 312 311 310 310 309 309 309 308 308 308 308 307 307 306 306 305 305 305 305 306 307 307 308 308 309 309 309 309 309 308
315 315 315 315 315 314 314 312 311 310 310 311 311 310 310 310 309 309 309 308 308 307 307 306 305 305 304 304 303 303 303 304 305 306 306 307 307 307 307 307 307 306
316 316 316 316 315 314 314 313 311 310 310 311 311 310 309 309 309 309 308 308 307 306 305 305 304 304 304 303 303 303 303 303 304 304 305 305 305 305 304 304 304 304
316 317 316 316 315 315 314 313 311 310 310 311 311 310 310 309 309 308 307 307 306 305 305 304 304 303 303 302 302 302 302 303 303 303 303 303 302 303 302 302 302 302
317 317 316 316 315 315 314 313 311 309 310 311 310 310 309 308 308 307 306 305 305 304 304 303 303 302 301 301 301 302 302 302 302 301 301 301 301 300 300 300 300 300
317 317 317 316 315 315 314 313 311 310 310 310 310 310 309 308 307 306 305 305 304 304 303 302 302 301 301 301 301 301 301 301 300 300 300 300 299 299 299 299 299 299
317 317 317 316 316 315 314 313 311 310 310 310 310 309 308 307 306 305 305 304 304 303 302 301 301 300 301 301 301 301 300 300 300 300 299 299 299 298 298 298 298 298
317 317 317 317 316 315 314 313 311 310 310 310 309 309 307 306 306 305 304 304 303 302 301 301 300 300 301 301 301 301 300 300 299 299 299 298 298 298 297 297 297 297
318 317 317 317 316 315 314 312 311 309 310 310 309 307 306 306 305 304 304 303 302 301 300 301 300 300 300 301 301 300 299 299 299 298 298 297 297 297 297 296 296 296
317 318 317 317 316 315 314 312 310 309 309 309 308 307 306 305 304 304 303 301 300 301 301 300 300 300 300 300 300 299 299 298 298 297 297 296 296 296 295 295 295 294
317 318 318 316 315 314 313 311 310 309 309 308 307 306 305 304 304 302 301 300 300 301 300 300 300 300 300 299 299 299 298 297 297 296 296 296 295 294 293 293 294 294
317 317 318 316 315 313 312 310 309 309 308 307 306 305 304 304 302 301 300 300 300 300 300 300 300 300 299 299 298 298 297 297 296 296 295 294 293 293 293 293 293 293
317 317 318 317 314 313 311 310 309 308 307 307 305 304 304 302 301 300 300 300 300 300 300 300 300 299 299 299 298 297 297 296 296 295 294 294 293 293 293 293 293 294
317 317 318 316 313 312 310 309 308 308 306 305 304 304 303 301 300 300 300 300 300 300 300 300 299 299 298 298 297 297 297 296 295 295 294 294 293 293 293 294 294 295
316 316 317 315 312 311 310 308 308 307 306 305 304 303 301 300 300 300 300 300 300 300 300 299 299 298 298 297 297 297 296 295 295 294 294 294 294 294 294 294 295 296
315 315 316 313 311 310 309 308 307 306 305 304 303 302 301 300 300 300 299 299 300 300 299 299 298 298 297 297 297 296 295 295 295 294 294 295 295 295 295 295 295 296
315 315 314 311 310 309 308 307 306 305 304 303 302 301 301 300 300 300 299 299 299 299 299 298 298 298 297 297 296 296 295 295 295 295 295 295 295 295 295 295 296 296
315 314 312 310 309 309 308 306 305 304 304 303 302 301 301 300 300 300 299 299 299 299 298 298 298 297 297 297 296 296 295 295 295 295 295 295 295 295 296 296 296 297
314 313 310 309 308 308 307 306 305 304 304 303 302 301 301 300 300 299 299 299 298 298 298 298 297 297 297 296 296 296 295 295 295 295 295 295 295 295 295 295 296 297
312 310 308 308 308 308 307 306 305 304 303 303 302 301 301 300 300 299 299 299 298 298 298 297 297 297 297 296 296 296 295 295 295 295 295 295 295 295 295 295 294 295
309 308 308 309 309 309 307 306 305 304 303 303 302 301 301 300 299 299 299 298 297 297 297 297 297 297 296 295 295 296 295 295 295 295 296 296 295 295 295 294 293 293
311 311 311 311 310 309 307 305 304 304 303 302 301 301 301 300 300 299 299 298 296 296 296 296 296 296 295 295 295 295 295 295 295 295 296 296 295 294 294 293 293 292
Wind_Speed
12 11 10 9 8 7 5 4 4 4 5 6 6 6 7 6 5 5 4 4 5 5 6 6 6 6 5 4 5 6 6 6 6 6 6 6 6 7 7 5 5 6
13 11 11 9 7 6 5 4 3 3 4 5 4 5 4 4 4 4 4 4 5 5 6 7 7 8 8 8 8 8 8 7 7 7 6 6 6 6 6 6 5 5
13 11 10 8 7 6 4 3 2 3 4 4 3 3 2 2 2 3 4 5 6 6 6 7 8 8 9 9 9 10 9 9 8 7 6 6 6 5 5 4 4 3
13 11 10 8 7 6 4 3 2 3 4 3 2 2 1 1 2 3 4 5 5 5 5 6 7 8 8 9 9 9 9 8 7 6 5 4 3 3 3 4 4 3
13 11 10 9 7 6 5 3 1 3 4 3 3 3 2 1 2 2 3 4 4 4 5 6 7 9 9 10 11 10 9 8 7 6 5 4 2 3 3 3 4 4
13 12 11 10 9 7 6 4 2 3 4 4 4 4 3 3 3 2 3 3 4 5 6 7 9 10 10 11 12 11 10 9 7 6 6 5 4 4 4 5 6 7
14 13 11 11 10 9 7 5 3 3 4 5 5 5 4 4 4 3 3 3 4 6 7 8 9 10 11 12 12 11 10 9 8 7 6 6 6 6 6 7 8 8
14 14 13 12 12 11 9 6 4 4 4 6 7 6 5 4 5 4 3 3 5 6 8 9 10 11 12 12 11 9 8 7 7 7 7 7 7 8 9 9 10 10
15 15 15 15 14 13 11 8 5 5 5 7 8 7 6 5 5 4 3 4 5 7 8 10 11 12 12 11 9 8 7 7 8 8 9 9 9 10 10 11 11 12
17 17 17 16 16 14 12 9 7 6 7 8 9 7 6 7 5 4 3 4 5 7 9 11 11 11 10 8 7 7 7 8 9 10 10 10 11 11 12 12 12 13
19 18 18 18 17 15 13 10 8 7 8 9 9 8 8 7 6 4 4 5 7 9 10 10 10 9 8 6 6 6 7 8 9 10 11 11 11 12 13 13 13 14
20 20 20 19 18 16 14 12 9 9 9 10 9 8 9 7 5 4 4 6 8 10 10 9 8 7 5 4 5 6 7 9 10 10 11 12 13 14 14 14 14 14
22 22 22 21 19 17 15 13 11 10 10 10 10 10 9 7 5 4 5 7 9 9 9 8 7 6 4 4 6 7 8 9 10 11 12 13 15 15 15 14 13 13
24 23 23 22 19 17 16 14 12 11 11 11 11 10 9 6 4 4 5 7 8 8 8 7 6 6 6 5 6 7 8 9 10 12 13 15 15 15 14 13 13 13
24 24 24 22 19 18 17 15 13 12 12 12 12 10 8 5 4 4 5 6 7 7 7 6 6 6 6 6 7 8 9 10 12 13 15 17 16 14 12 11 10 10
25 26 24 20 19 20 18 16 14 13 13 13 12 10 8 5 3 4 4 5 6 6 6 5 6 6 7 8 9 10 11 12 13 15 17 17 15 12 11 10 9 9
26 25 21 19 21 22 19 16 14 14 15 14 12 10 7 4 2 2 3 4 5 5 5 5 6 7 8 10 10 11 13 14 15 18 17 13 10 10 10 10 10 9
23 21 19 19 22 22 19 16 15 16 16 15 13 10 7 4 2 1 2 3 4 4 4 5 6 8 9 10 12 13 13 16 17 16 13 10 9 9 9 10 10 10
21 21 20 21 23 22 18 16 17 17 17 15 13 10 7 5 3 1 1 2 2 3 4 5 7 8 10 11 12 13 15 17 15 11 9 9 8 8 8 8 9 9
23 23 22 22 23 20 17 17 18 18 17 15 12 10 8 6 4 3 1 1 2 3 4 6 7 9 10 11 13 14 16 13 9 8 9 9 7 7 8 7 7 9
22 22 22 24 23 19 18 19 20 19 17 15 13 10 8 7 5 3 2 1 2 3 4 6 8 8 9 11 13 14 12 8 6 8 9 8 7 7 7 7 8 9
21 21 24 25 22 19 19 20 20 19 17 15 13 11 9 8 6 4 2 2 3 3 5 6 6 7 8 11 13 11 7 5 6 8 8 7 7 6 6 7 8 8
22 23 24 22 19 18 20 21 21 20 17 15 14 12 11 10 7 5 3 3 3 4 5 5 5 6 8 11 11 7 5 5 6 8 8 7 6 6 5 6 8 7
22 23 22 20 18 20 22 23 23 20 18 16 15 13 12 11 8 6 4 3 4 4 4 4 5 6 8 9 8 5 3 4 7 8 8 7 5 5 6 7 7 6
20 20 20 21 22 24 24 25 23 20 18 16 15 14 12 11 9 7 4 4 4 5 4 4 4 5 7 8 5 3 2 3 6 8 8 6 5 6 8 8 8 7
22 24 27 27 26 25 26 26 23 20 18 17 16 15 13 11 9 6 5 5 5 5 4 4 4 5 6 6 4 2 2 3 5 7 7 5 5 7 9 10 10 9
Wind_Direction
147 141 137 134 134 129 118 111 105 88 85 94 90 72 66 64 58 53 51 39 26 17 10 6 1 356 354 353 352 347 343 339 332 322 317 323 328 324 319 315 302 295
149 144 141 143 146 139 122 109 101 94 105 111 98 83 75 53 34 28 21 14 11 11 10 7 4 0 356 349 345 341 336 331 323 310 295 293 301 307 304 300 292 290
158 154 150 151 156 150 136 116 106 117 132 130 109 102 89 21 8 4 2 3 5 7 5 1 356 352 348 343 340 337 334 329 324 315 296 283 285 287 279 266 256 261
170 168 162 161 164 161 154 140 125 152 163 166 173 183 208 328 338 347 355 357 356 355 351 346 343 341 339 338 337 335 332 328 323 320 309 292 279 262 242 230 234 250
180 180 178 179 180 180 178 172 167 181 186 196 206 212 229 262 287 317 333 336 334 333 333 333 335 337 338 339 340 338 335 330 322 318 310 299 274 253 248 248 263 281
191 193 193 194 197 197 195 194 198 200 207 215 216 223 234 237 251 275 293 307 314 318 326 330 332 336 338 339 340 338 335 328 319 314 309 305 294 284 284 283 285 292
202 205 205 204 206 209 208 209 218 223 224 223 224 231 234 234 240 250 267 289 305 315 324 328 331 334 336 337 336 334 331 325 320 318 318 321 318 313 313 309 304 303
211 213 214 213 213 214 214 217 225 233 230 226 229 233 232 233 235 239 260 284 304 318 324 327 331 334 335 335 335 334 332 330 332 334 334 335 332 329 328 325 321 317
221 221 222 220 218 218 217 218 224 233 232 228 230 231 228 228 231 241 264 291 313 324 327 329 331 333 333 334 337 341 344 344 346 348 347 346 343 339 334 330 326 321
228 229 230 227 224 222 220 219 223 232 232 229 230 228 224 225 229 245 275 304 323 330 332 332 333 334 335 338 345 350 349 349 350 349 348 346 342 339 336 332 328 322
234 235 236 233 230 227 223 220 223 233 234 229 228 224 222 224 230 250 288 317 329 334 336 337 339 340 341 344 348 347 344 343 342 340 339 338 336 334 332 328 324 320
236 240 241 238 234 230 225 221 224 233 231 226 225 224 221 220 229 259 298 321 330 335 339 343 347 347 346 338 331 335 337 334 334 333 332 331 330 329 328 325 321 318
237 241 244 243 238 231 225 221 225 230 227 222 221 219 216 216 230 269 306 322 330 337 344 350 350 344 338 330 323 328 330 328 330 331 330 330 330 330 330 328 324 319
238 241 245 246 238 227 221 221 225 226 221 216 214 212 211 217 237 280 311 324 333 342 349 351 348 343 344 337 324 322 325 328 331 331 332 333 334 335 333 329 324 319
234 239 244 245 235 221 218 222 224 220 211 208 208 207 208 219 247 293 315 328 337 345 349 349 346 344 340 331 323 324 329 331 333 335 336 336 336 336 335 332 330 328
228 233 239 240 231 220 218 221 219 210 204 203 203 203 205 220 254 301 322 334 340 346 347 342 339 332 321 319 324 327 329 332 334 335 335 335 337 342 347 350 351 348
224 227 234 237 229 220 218 218 211 203 200 200 198 198 203 217 250 306 332 337 340 344 339 330 327 317 311 317 323 325 328 332 333 333 335 342 351 359 0 2 6 12
223 227 235 236 225 218 216 212 205 199 197 196 195 195 199 203 214 284 330 333 334 335 329 324 319 313 313 319 323 326 330 330 331 335 346 1 9 11 10 12 19 26
223 230 237 233 221 216 213 207 200 197 195 194 193 192 192 190 187 199 273 315 327 323 318 317 315 315 320 324 325 328 330 330 336 350 5 10 13 20 20 22 28 25
220 228 233 226 215 211 209 204 200 197 194 193 192 190 189 186 185 190 207 286 303 299 307 315 318 321 325 326 327 331 332 336 353 12 11 12 21 27 28 30 30 21
221 225 225 216 209 207 208 204 200 196 193 192 192 193 191 187 187 193 200 253 276 282 299 313 320 323 326 328 332 336 340 350 16 16 11 21 30 30 32 34 29 23
218 218 215 208 202 203 206 204 199 197 195 194 194 193 191 191 193 198 212 246 255 270 294 308 318 321 325 332 338 345 353 10 19 12 12 23 30 31 34 34 30 24
216 213 206 197 196 206 209 205 202 200 198 198 198 196 194 196 198 200 215 249 254 263 286 302 312 318 327 336 345 358 13 14 10 6 7 14 25 30 27 26 29 21
210 201 193 190 205 220 218 210 205 202 200 201 202 200 196 196 198 202 214 243 254 262 280 298 306 317 332 343 354 12 20 5 0 358 358 4 17 26 19 16 19 10
197 192 194 206 220 225 220 213 207 202 202 203 203 201 199 197 199 205 221 243 255 265 279 293 303 321 338 348 360 19 17 356 352 349 350 355 5 13 13 10 7 356
204 209 212 219 225 224 218 213 207 202 201 201 199 198 200 202 204 212 232 246 254 264 274 283 296 321 340 347 355 2 350 340 337 335 339 349 358 5 7 3 357 350